DELTA 1 DEB

Satellite information

Favourite Embed

Satellite Type and Status

DEBRISIN ORBIT

Key statistics

Satellite DELTA 1 DEB at a glance.

Uptime

17451

Days in orbit

Revolutions

≈ 14.4

Per day

Orbit

SSO

Sun Synchronous Orbit

Inclination

98.6

Latest

Satellite identification and parameters

Extended collection of information and parameters for DELTA 1 DEB.

Object identification

Identified? True

Debris? True

Object name: DELTA 1 DEB

International designator: 1978-026AU

Object number (NORAD): 12203

Object ID (CCSDS): 12203

Country: UNITED STATES OF AMERICA (US)

Current information (Y/N): Y

RCS size: MEDIUM

Orbital parameters

Period: 100.031 minutes

Inclination: 98.6459 deg

SMA: 7138.1 km

Apoapsis: 803.588 km

Periapsis: 716.343 km

RAAN: 6.7352 deg

Eccentricy: 0.00611117

Argument of periapsis: 24.6555 deg

Mean anomaly: 90.4491 deg

Mean motion: 14.39556722 rev/day

Mean motion (dot): 0.00001366 rev/day2

B* drag term: 0.00044262271 1/REarth

Two-line elements (TLE)

Creation date: Dec. 14, 2025, 3:07 a.m.

Reference frame: TEME

Reference center: EARTH

Epoch: Dec. 13, 2025, 2:51 p.m. UTC

TLE line 0: 0 DELTA 1 DEB

TLE line 1: 1 12203U 78026AU 25347.61900284 .00001366 00000-0 44262-3 0 9999

TLE line 2: 2 12203 98.6459 6.7352 0061112 24.6555 90.4491 14.39556722337455

Live tracking on map

Real-time ground track for satellite DELTA 1 DEB.

In-orbit conjunctions

A list of the most updated potential collisions computed for object DELTA 1 DEB.

Target Orbit TCA Probability of collision Miss distance Type
COSMOS 2491 DEB * LEO 2025-06-15 20:49:41 0.000250752 99.0 (m) DEBRIS
COSMOS 2251 DEB LEO 2025-04-26 15:02:58 0.0001761064 235.0 (m) DEBRIS

Associated space launch

Earth observation satellite

DELTA 1 DEB was lifted into orbit during the mission ‘Delta 2910 | Landsat 3’, on board a Delta 2910 space rocket.

The launch took place on March 5, 1978, 5:54 p.m. from Space Launch Complex 2W.

For more information about the launch, click the button.

Launch to space Delta 2910 | Landsat 3
Delta 2910 | Landsat 3

Agency: N/A

Status: Launch Successful

Launch date: March 5, 1978, 5:54 p.m. UTC

Rocket: Delta 2910

Launch pad: Space Launch Complex 2W

Location: Vandenberg SFB, CA, USA

...

Latest news about this satellite

There are no fresh news available about this satellite. Check back as we update our databases every day.


Newsletter sign-up

Weekly statistics, charts and insights to help you stay on top of the space industry.